GW0953 Weather Reports


time (UTC)temp
C
wind
direction
speed
KPH
gust
KPH
rain 1hr
cm
rain 24hr
cm
rain mn
cm
humidity
%
barometer
mb
20260504050358 5 338 0.0 0.0 0.00 0.00 0.00 79 1021.6
20260504045855 5 343 0.0 0.0 0.00 0.00 0.00 78 1021.7
20260504045350 5 343 0.0 0.0 0.00 0.00 0.00 78 1021.6
20260504044847 5 346 0.0 0.0 0.00 0.00 0.00 76 1021.6
20260504044344 5 332 0.0 0.0 0.00 0.00 0.00 75 1021.6
20260504043842 5 331 0.0 0.0 0.00 0.00 0.00 75 1021.7
20260504043338 5 331 0.0 0.0 0.00 0.00 0.00 76 1021.6
20260504042836 5 331 0.0 0.0 0.00 0.00 0.00 77 1021.7
20260504042332 5 331 0.0 0.0 0.00 0.00 0.00 76 1021.6
20260504041828 5 331 0.0 0.0 0.00 0.00 0.00 75 1021.8
20260504041325 5 331 0.0 0.0 0.00 0.00 0.00 73 1021.4
20260504040821 5 331 0.0 0.0 0.00 0.00 0.00 74 1021.6
20260504040319 5 331 0.0 0.0 0.00 0.00 0.00 72 1021.7
20260504035814 5 331 0.0 0.0 0.00 0.00 0.00 72 1021.8
20260504035312 5 331 0.0 0.0 0.00 0.00 0.00 72 1021.5
20260504034809 5 338 0.0 0.0 0.00 0.00 0.00 72 1021.7
20260504034307 5 338 0.0 0.0 0.00 0.00 0.00 73 1021.8
20260504033804 6 338 0.0 0.0 0.00 0.00 0.00 69 1021.7
20260504033301 6 338 0.0 0.0 0.00 0.00 0.00 70 1021.7
20260504032758 6 339 0.0 0.0 0.00 0.00 0.00 70 1021.6
20260504032255 6 339 0.0 0.0 0.00 0.00 0.00 67 1021.5
20260504031751 6 339 0.0 0.0 0.00 0.00 0.00 69 1021.7
20260504031249 6 339 0.0 0.0 0.00 0.00 0.00 69 1021.7
20260504030745 6 339 0.0 0.0 0.00 0.00 0.00 69 1021.4
20260504030242 6 339 0.0 0.0 0.00 0.00 0.00 68 1021.7
20260504025738 6 339 0.0 0.0 0.00 0.00 0.00 68 1021.5
20260504025235 6 339 0.0 0.0 0.00 0.00 0.00 68 1021.6
20260504024732 7 338 0.0 0.0 0.00 0.00 0.00 68 1021.4
20260504024229 7 348 0.0 0.0 0.00 0.00 0.00 65 1021.6
20260504023726 7 335 0.0 0.0 0.00 0.00 0.00 64 1021.5
20260504023222 7 335 0.0 0.0 0.00 0.00 0.00 65 1021.6
20260504022718 7 334 0.0 0.0 0.00 0.00 0.00 65 1021.6
20260504022214 7 334 0.0 0.0 0.00 0.00 0.00 65 1021.6
20260504021712 7 334 0.0 0.0 0.00 0.00 0.00 63 1021.5
20260504021209 7 332 0.0 0.0 0.00 0.00 0.00 64 1021.4
20260504020706 7 332 0.0 0.0 0.00 0.00 0.00 62 1021.3
20260504020201 7 332 0.0 0.0 0.00 0.00 0.00 63 1021.6
20260504015658 7 332 0.0 0.0 0.00 0.00 0.00 65 1021.1
20260504015154 7 332 0.0 0.0 0.00 0.00 0.00 65 1021.3
20260504014650 8 332 0.0 0.0 0.00 0.00 0.00 61 1021.3
20260504014148 8 332 0.0 0.0 0.00 0.00 0.00 62 1021.1
20260504013645 8 332 0.0 0.0 0.00 0.00 0.00 62 1021.4
20260504013142 8 331 0.0 0.0 0.00 0.00 0.00 66 1021.3
20260504012639 8 332 0.0 0.0 0.00 0.00 0.00 63 1021.0
20260504012137 8 332 0.0 0.0 0.00 0.00 0.00 62 1020.9
20260504011633 8 330 0.0 0.0 0.00 0.00 0.00 64 1021.1
20260504011130 8 334 0.0 0.0 0.00 0.00 0.00 64 1021.0
20260504010626 8 322 0.0 0.0 0.00 0.00 0.00 61 1021.2
20260504010122 8 322 0.0 0.0 0.00 0.00 0.00 61 1021.1
20260504005619 8 322 0.0 0.0 0.00 0.00 0.00 59 1021.0
20260504005116 9 322 0.0 0.0 0.00 0.00 0.00 58 1020.9
20260504004614 10 322 0.0 0.0 0.00 0.00 0.00 56 1021.0
20260504004111 10 321 0.0 1.6 0.00 0.00 0.00 55 1021.0
20260504003607 10 317 1.6 1.6 0.00 0.00 0.00 58 1020.8
20260504003104 10 322 0.0 1.6 0.00 0.00 0.00 51 1020.8
20260504002601 10 327 1.6 1.6 0.00 0.00 0.00 51 1020.8
20260504002058 11 345 1.6 1.6 0.00 0.00 0.00 48 1020.8
20260504001556 11 328 0.0 0.0 0.00 0.00 0.00 48 1020.7
20260504001051 11 325 0.0 1.6 0.00 0.00 0.00 50 1020.8
20260504000549 11 328 0.0 0.0 0.00 0.00 0.00 47 1020.7
20260504000047 12 328 4.8 4.8 0.00 0.00 0.00 47 1020.7
20260503235545 12 323 3.2 3.2 0.00 0.00 0.00 45 1020.5
20260503235041 13 333 1.6 1.6 0.00 0.00 0.00 43 1020.6
20260503234538 13 327 3.2 4.8 0.00 0.00 0.00 36 1020.7
20260503234037 13 318 1.6 1.6 0.00 0.00 0.00 39 1020.8
20260503233533 13 338 4.8 4.8 0.00 0.00 0.00 41 1020.6
20260503233029 13 326 4.8 4.8 0.00 0.00 0.00 44 1020.7
20260503232526 13 334 0.0 1.6 0.00 0.00 0.00 36 1020.6
20260503232024 13 321 0.0 1.6 0.00 0.00 0.00 34 1020.6
20260503231521 13 326 1.6 3.2 0.00 0.00 0.00 35 1020.5
20260503231018 13 324 4.8 4.8 0.00 0.00 0.00 40 1020.5
20260503230514 13 315 1.6 1.6 0.00 0.00 0.00 35 1020.5
20260503230012 14 6 1.6 1.6 0.00 0.00 0.00 35 1020.4
20260503225509 14 244 3.2 3.2 0.00 0.00 0.00 34 1020.6
20260503225004 15 339 3.2 3.2 0.00 0.00 0.00 32 1020.4
20260503224502 15 97 1.6 3.2 0.00 0.00 0.00 32 1020.2
20260503223959 15 75 1.6 3.2 0.00 0.00 0.00 33 1020.6
20260503223457 15 308 1.6 3.2 0.00 0.00 0.00 31 1020.5
20260503222952 15 319 4.8 8.0 0.00 0.00 0.00 32 1020.7
20260503222451 15 280 6.4 8.0 0.00 0.00 0.00 31 1020.8
20260503221949 15 256 4.8 4.8 0.00 0.00 0.00 31 1020.5
20260503221447 15 323 4.8 8.0 0.00 0.00 0.00 31 1020.6
20260503220943 15 332 0.0 0.0 0.00 0.00 0.00 31 1020.5
20260503220439 16 276 3.2 3.2 0.00 0.00 0.00 30 1020.8
20260503215937 16 312 3.2 4.8 0.00 0.00 0.00 30 1020.7
20260503215433 16 315 1.6 1.6 0.00 0.00 0.00 30 1020.5
20260503214931 15 280 6.4 8.0 0.00 0.00 0.00 31 1020.8
20260503214429 15 307 1.6 3.2 0.00 0.00 0.00 30 1020.8
20260503213926 15 333 3.2 3.2 0.00 0.00 0.00 30 1020.4
20260503213424 15 200 3.2 4.8 0.00 0.00 0.00 30 1020.5
20260503212920 16 259 8.0 9.7 0.00 0.00 0.00 31 1020.4
20260503212418 16 25 1.6 3.2 0.00 0.00 0.00 30 1020.4
20260503211915 16 325 1.6 1.6 0.00 0.00 0.00 30 1020.7
20260503211412 16 77 3.2 3.2 0.00 0.00 0.00 30 1020.8
20260503210907 15 273 8.0 9.7 0.00 0.00 0.00 30 1020.9
20260503210404 15 279 6.4 8.0 0.00 0.00 0.00 29 1020.7
20260503205859 15 318 1.6 1.6 0.00 0.00 0.00 30 1020.6
20260503205356 16 281 6.4 8.0 0.00 0.00 0.00 29 1020.9
20260503204852 16 326 1.6 3.2 0.00 0.00 0.00 30 1020.8
20260503204349 15 270 4.8 8.0 0.00 0.00 0.00 30 1021.0
20260503203847 15 319 1.6 1.6 0.00 0.00 0.00 31 1020.8
20260503203344 15 278 6.4 9.7 0.00 0.00 0.00 29 1021.1
20260503202841 15 322 0.0 1.6 0.00 0.00 0.00 30 1020.9
20260503202339 16 2 6.4 9.7 0.00 0.00 0.00 29 1020.9
20260503201838 16 39 6.4 8.0 0.00 0.00 0.00 31 1020.9
20260503201334 15 226 4.8 8.0 0.00 0.00 0.00 30 1020.8
20260503200832 16 330 3.2 4.8 0.00 0.00 0.00 32 1021.3
20260503200327 15 344 4.8 4.8 0.00 0.00 0.00 30 1021.2
20260503195825 15 291 11.3 12.9 0.00 0.00 0.00 30 1021.2
20260503195321 15 288 8.0 9.7 0.00 0.00 0.00 30 1021.2
20260503194819 15 16 0.0 1.6 0.00 0.00 0.00 30 1021.2
20260503194314 16 285 6.4 9.7 0.00 0.00 0.00 29 1021.4
20260503193811 15 272 1.6 3.2 0.00 0.00 0.00 31 1021.3
20260503193307 15 324 4.8 8.0 0.00 0.00 0.00 31 1021.7
20260503192803 15 271 6.4 8.0 0.00 0.00 0.00 31 1021.2
20260503192258 15 245 11.3 14.5 0.00 0.00 0.00 31 1021.4
20260503191755 15 54 8.0 9.7 0.00 0.00 0.00 31 1021.3
20260503191252 15 316 0.0 1.6 0.00 0.00 0.00 32 1021.7
20260503190748 15 91 4.8 4.8 0.00 0.00 0.00 32 1021.5
20260503190245 15 337 9.7 16.1 0.00 0.00 0.00 31 1021.9
20260503185742 15 273 9.7 11.3 0.00 0.00 0.00 31 1021.9
20260503185238 15 250 6.4 8.0 0.00 0.00 0.00 33 1022.0
20260503184733 15 78 1.6 1.6 0.00 0.00 0.00 31 1021.8
20260503184230 15 331 3.2 4.8 0.00 0.00 0.00 31 1022.3
20260503183726 15 350 4.8 8.0 0.00 0.00 0.00 31 1022.0
20260503183223 15 238 9.7 11.3 0.00 0.00 0.00 32 1022.3
20260503182721 15 5 1.6 1.6 0.00 0.00 0.00 32 1022.3
20260503182220 15 274 6.4 8.0 0.00 0.00 0.00 31 1022.3
20260503181716 15 7 1.6 1.6 0.00 0.00 0.00 33 1022.3
20260503181213 15 11 1.6 3.2 0.00 0.00 0.00 32 1022.6
20260503180709 13 247 3.2 3.2 0.00 0.00 0.00 33 1022.2
20260503180208 13 141 8.0 11.3 0.00 0.00 0.00 33 1022.3
20260503175704 15 260 8.0 9.7 0.00 0.00 0.00 32 1022.6
20260503175202 14 230 4.8 8.0 0.00 0.00 0.00 34 1022.3
20260503174658 13 64 4.8 4.8 0.00 0.00 0.00 33 1022.4
20260503174156 13 267 9.7 12.9 0.00 0.00 0.00 34 1022.6
20260503173650 12 234 8.0 9.7 0.00 0.00 0.00 37 1022.7
20260503173147 14 299 4.8 8.0 0.00 0.00 0.00 34 1022.7
20260503172644 13 314 1.6 1.6 0.00 0.00 0.00 33 1022.7
20260503172141 13 267 16.1 17.7 0.00 0.00 0.00 34 1022.6
20260503171637 13 349 1.6 1.6 0.00 0.00 0.00 34 1022.7
20260503171135 13 270 6.4 11.3 0.00 0.00 0.00 35 1022.9
20260503170632 12 61 11.3 14.5 0.00 0.00 0.00 34 1022.9
20260503170129 13 242 11.3 14.5 0.00 0.00 0.00 35 1023.1
20260503150520 11 320 4.8 8.0 0.00 0.00 0.00 40 1024.1
20260503131413 8 304 1.6 3.2 0.00 0.00 0.00 54 1023.6
20260503130910 8 255 11.3 16.1 0.00 0.00 0.00 54 1023.8
20260503130408 7 264 8.0 9.7 0.00 0.00 0.00 55 1024.1
20260503110811 2 5 0.0 0.0 0.00 0.00 0.00 85 1023.4
20260503110308 2 348 0.0 0.0 0.00 0.00 0.00 83 1023.1
20260503100235 1 10 1.6 1.6 0.00 0.00 0.00 88 1022.6
20260503090154 1 342 0.0 0.0 0.00 0.00 0.00 89 1022.4
20260503081624 1 334 0.0 0.0 0.00 0.00 0.00 86 1022.3
20260503081121 1 346 0.0 0.0 0.00 0.00 0.00 85 1022.1
20260503080617 1 340 0.0 0.0 0.00 0.00 0.00 85 1022.1
20260503080114 1 336 0.0 0.0 0.00 0.00 0.00 85 1022.3
20260503072551 2 343 0.0 0.0 0.00 0.00 0.00 82 1021.8
20260503072048 2 333 0.0 0.0 0.00 0.00 0.00 81 1021.9
20260503071544 2 338 0.0 0.0 0.00 0.00 0.00 80 1021.9
20260503071041 2 314 3.2 3.2 0.00 0.00 0.00 80 1021.9
20260503070537 3 342 1.6 1.6 0.00 0.00 0.00 80 1021.8